Location: Mexico
(19.4000°N, 99.1500°W)
Time: 00:47:42
(UTC-06:00)

ISS - Pass Details

Date: 26 July 2017
Orbit: 400 x 408 km, 51.6° (Epoch: 21 July)

Event Time Altitude Azimuth Distance (km) Brightness Sun altitude
Exits shadow 05:31:23 - 281° (W) 1,512 -1.4 -9.5°
Reaches altitude 10° 05:31:36 10° 278° (W) 1,448 -1.5 -9.4°
Maximum altitude 05:33:47 17° 235° (SW) 1,108 -2.2 -8.9°
Drops below altitude 10° 05:35:58 10° 193° (SSW) 1,448 -1.4 -8.5°
Sets 05:38:32 0° 171° (S) 2,306 -0.2 -7.9°
